www.pogodaiklimat.ru

ПОГОДА в Ильичёвске

  • Прогноз погоды в Ильичёвске
  • Монитор погоды в Ильичёвске
  • Климат города

АРХИВ ПОГОДЫ в Ильичёвске

Время (UTC), дата Ветер
(напр.,м/с)
 
Видим.   Явления Облачность Т
(С)
Тd
(С)
f
(%)
Тe
(С)
Тes
(С)
Комфортность P
(гПа)
Po
(гПа)
Тmin
(С)
Tmax
(С)
R
(мм)
S
(см)
21 23.07 штиль 0 20 км ясно +23.7 +22.0 90 +31 +31 очень
душно
1008.6 1009.0
00 24.07 СВ 3 10 км ясно +23.5 +20.4 83 +29 +29 душно 1007.9 1008.0
03 24.07 СВ 2 15 км 6/6 570 м
[Cb cap]
+23.1 +20.4 85 +30 +30 очень
душно
1007.3 1007.0
06 24.07 СЗ 2 10 км гроза, ливневой дождь 10/10 600 м
[Cb cap]
+23.3 +20.4 84 +31 +31 очень
душно
1007.7 1008.0 +22.9 0.0
12 24.07 СВ 4 20 км {гроза, ливн. осадки} 5/0
[Ac cast Cc]
+27.9 +20.5 64 +35 +42 очень
душно
1008.2 1008.0
15 24.07 С 2 16 км 6/3 600 м
[Cu med, cong Ci fib]
+27.2 +20.7 68 +34 +36 очень
душно
1007.8 1008.0
18 24.07 С 3 13 км 8/5 600 м
[Sc Ac und]
+25.2 +20.8 77 +32 +32 очень
душно
1008.3 1008.0 +29.0 7
21 24.07 С 2 10 км 3/0
[Ci fib]
+22.6 +19.3 82 +29 +29 очень
душно
1008.7 1009.0
00 25.07 СЗ 2 10 км ясно +20.1 +17.7 86 +24 +24 комфорт 1008.6 1009.0
03 25.07 СЗ 3 16 км ясно +19.6 +17.5 88 +22 +22 комфорт 1009.5 1010.0
06 25.07 С 3 20 км 3/0
[Ac trans]
+23.3 +19.1 77 +30 +35 очень
душно
1009.2 1009.0 +19.4
09 25.07 С 3 23 км 3/0
[Cc]
+28.8 +23.3 72 +39 +52 опасность
солнечного
удара
1010.4 1010.0
12 25.07 С 4 30 км 3/0
[Ac lent]
+31.2 +17.3 43 +35 +42 очень
душно
1010.2 1010.0
15 25.07 СВ 3 30 км 3/0
[Ac lent Ci sp]
+30.5 +18.1 48 +35 +37 очень
душно
1010.1 1010.0
18 25.07 СВ 3 23 км 3/0
[Ac trans]
+27.8 +17.3 53 +32 +32 душно 1010.8 1011.0 +32.0
21 25.07 СЗ 2 20 км ясно +24.8 +16.7 61 +28 +28 жарко 1011.9 1012.0
00 26.07 СВ 2 20 км ясно +24.8 +17.3 63 +29 +29 душно 1011.7 1012.0
03 26.07 СВ 3 23 км 4/4 600 м
[Sc]
+24.2 +19.9 77 +30 +30 очень
душно
1010.0 1010.0
06 26.07 СВ 3 25 км 3/0
[Ac und]
+26.1 +19.6 67 +32 +36 очень
душно
1013.2 1013.0 +23.8
09 26.07 СВ 3 30 км ясно +29.5 +17.0 47 +33 +47 душно 1013.3 1013.0
12 26.07 СВ 2 30 км 3/3 600 м
[Cu med, cong]
+32.4 +15.9 37 +35 +45 душно 1012.8 1013.0
15 26.07 СВ 1 30 км 3/3 600 м
[Cu med, cong]
+33.3 +14.0 31 +34 +37 очень
жарко
1011.7 1012.0
18 26.07 В 2 20 км 6/6 600 м
[Cb cap]
+29.1 +18.7 53 +34 +34 очень
душно
1012.9 1013.0 +34.1
21 26.07 В 5 10 км {ливн. осадки} ясно +25.2 +19.5 71 +31 +31 очень
душно
1014.1 1014.0
00 27.07 В 4 10 км {ливн. осадки} ясно +25.2 +18.3 66 +30 +30 душно 1014.5 1015.0
03 27.07 СВ 4 17 км ясно +24.2 +17.5 66 +28 +28 душно 1015.4 1015.0
06 27.07 СВ 5 25 км ясно +25.9 +16.9 58 +30 +33 душно 1016.2 1016.0 +24.0
09 27.07 СВ 4 30 км ясно +28.1 +16.6 50 +32 +32 душно 1016.7 1017.0
12 27.07 В 1 30 км ясно +30.2 +14.2 38 +32 +49 жарко 1016.5 1017.0
15 27.07 штиль 0 30 км ясно +31.5 +12.9 32 +32 +37 жарко 1015.4 1015.0
18 27.07 ЮЗ 1 20 км 3/0
[Ci fib]
+27.9 +15.9 48 +31 +31 душно 1015.1 1015.0 +32.2
21 27.07 штиль 0 10 км ясно +25.4 +17.3 61 +29 +29 душно 1015.9 1016.0
00 28.07 штиль 0 10 км ясно +23.7 +16.5 64 +27 +27 жарко 1015.9 1016.0
03 28.07 СВ 3 17 км 3/0
[Ac und]
+24.8 +16.7 61 +28 +29 жарко 1015.9 1016.0
06 28.07 В 5 22 км ясно +27.7 +17.7 54 +32 +36 очень
душно
1016.9 1017.0 +23.6
09 28.07 В 3 25 км ясно +30.2 +21.0 58 +38 +51 опасность
солнечного
удара
1017.1 1017.0
12 28.07 В 3 23 км ясно +30.9 +23.9 66 +42 +54 опасность
перегрева
1016.4 1016.0
15 28.07 ЮВ 1 28 км ясно +28.1 +16.9 51 +32 +36 душно 1015.1 1015.0
18 28.07 ЮВ 2 22 км ясно +25.6 +19.4 69 +31 +31 очень
душно
1014.7 1015.0 +32.2
21 28.07 В 5 10 км ясно +25.7 +18.1 63 +30 +30 душно 1014.7 1015.0
00 29.07 В 5 10 км ясно +24.5 +17.8 66 +29 +29 душно 1014.2 1014.0
03 29.07 СВ 3 17 км ясно +23.5 +19.0 76 +28 +28 душно 1013.7 1014.0
06 29.07 В 5 23 км ясно +25.9 +14.6 50 +28 +32 жарко 1014.0 1014.0 +23.2
09 29.07 В 4 25 км 3/0
[Ci fib]
+28.6 +18.7 55 +34 +44 очень
душно
1013.9 1014.0
12 29.07 В 2 30 км 3/0
[Ci fib]
+29.5 +18.0 50 +34 +47 очень
душно
1013.3 1013.0
15 29.07 штиль 0 30 км 5/0
[Ac und Ci fib]
+28.5 +13.6 40 +30 +34 жарко 1012.6 1013.0
18 29.07 штиль 0 23 км 8/0
[Ac lent Ci fib]
+25.3 +16.9 60 +29 +29 душно 1011.9 1012.0 +31.7
21 29.07 штиль 0 10 км 3/0
[Ci fib]
+24.1 +18.1 69 +28 +28 душно 1012.4 1012.0
00 30.07 В 4 10 км ясно +24.5 +20.4 78 +30 +30 очень
душно
1013.0 1013.0
03 30.07 В 3 17 км ясно +24.1 +19.5 75 +29 +29 душно 1012.1 1012.0
06 30.07 В 3 23 км 5/0
[Ac trans Cc]
+25.4 +18.0 64 +30 +35 душно 1013.1 1013.0 +23.1 +3.0
09 30.07 В 3 26 км 3/1 600 м
[Cu hum Cc]
+28.2 +17.8 53 +33 +44 очень
душно
1013.7 1014.0
12 30.07 ЮВ 1 29 км 3/1 600 м
[Cu hum Ci fib]
+28.8 +18.6 54 +34 +48 очень
душно
1013.2 1013.0
15 30.07 Ю 2 29 км 3/0
[Cc]
+28.1 +18.4 56 +33 +36 очень
душно
1012.5 1013.0
18 30.07 З 1 22 км 1/0
[Ci fib]
+26.6 +14.2 46 +29 +29 жарко 1012.1 1012.0 +30.5
21 30.07 штиль 0 4000 м мгла ясно +23.9 +15.7 60 +27 +27 жарко 1012.2 1012.0

 

Обсудить погоду в Ильичёвске на МЕТЕОФОРУМЕ

 

Местоположение метеостанции Ильичевск (Одесская область, Украина): широта 46.40 долгота 30.70 высота над уровнем моря 52 м.

В архиве по умолчанию представлена погода в Ильичёвске за последнюю неделю. Архивные данные за месяц целиком и за предыдущие месяцы, начиная с января 2011 года, Вы можете получить, выбрав интересующий диапазон дат из раскрывающегося списка и нажав кнопку "Ввод!".

Внимание! Время в таблицах - всемирное. Для получения местного времени необходимо прибавить поправку, которая в Ильичёвске равна 2 ч.

Ветер - указаны скорость ветра в м/с - средняя за 10 мин, порывы в срок и между сроками (в фигурных скобках) и направление, откуда дует ветер: С - северный, СВ - северо-восточный, В - восточный, ЮВ - юго-восточный, Ю - южный, ЮЗ - юго-западный, З - западный, СЗ - северо-западный.
Видимость - горизонтальная дальность видимости в метрах или километрах. При видимости от 1 до 10 км при отсутствии осадков обычно наблюдается дымка, при ухудшении видимости до 1 км и менее - туман. В сухую погоду видимость может ухудшаться дымом, пылью или мглою.
Явления - указаны атсосферные явления, наблюдавшиеся в срок или в последний час перед сроком; фигурными скобками обозначены явления, наблюдавшиеся между сроками (за 1-3 часа до срока); квадратными скобками обозначены град или гололедные отложения с указанием их диаметра в мм.
Облачность - указаны через наклонную черту общая и нижняя облачность в баллах и высота нижней границы облаков в метрах; квадратными скобками обозначены формы облаков: Ci - перистые, Cs - перисто-слоистые, Cc - перисто-кучевые, Ac - высококучевые, As - высокослоистые, Sc - слоисто-кучевые, Ns - слоисто-дождевые, Cu - кучевые, Cb - кучево-дождевые. Подробнее классификацию облаков см. в Атласе облаков (PDF).
T - Температура воздуха - температура, измеренная на высоте 2 м над землей.
Td - Температура точки росы - температура, при понижении до которой содержащийся в воздухе водяной пар достигнет насыщения.
f - Относительная влажность воздуха - влажноcть воздуха, измеренная на высоте 2 м над землей.
Te - Эффективная температура - температура, которую ощущает одетый по сезону человек в тени. Характеристика душности погоды. При расчете учитывается влияние влажности воздуха и скорости ветра на теплоощущения человека.
Tes - Эффективная температура на солнце - температура, которую ощущает человек, с поправкой на солнечный нагрев. Характеристика знойности погоды. Зависит от высоты солнца над горизонтом, облачности и скорости ветра. Ночью, в пасмурную погоду, а также при ветре 12 м/с и более поправка равна нулю.
P - Атмосферное давление - приведенное к уровню моря атмосферное давление.
Po - Атмосферное давление - измеренное на уровне метеостанции атмосферное давление.
Tmin - Минимальная температура - минимум температуры воздуха на высоте 2 м над землей.
Tmax - Максимальная температура - максимум температуры воздуха на высоте 2 м над землей.
R - Количество осадков - Количество выпавших осадков, мм.
S - Снежный покров - Высота снежного покрова, см.